This demonstration page uses our WeatherBlox Daily Observations layout. Learn more.

Left ArrowRight Arrow

38.88101, -77.10428

Hourly Observations for December 26, 2019

Temp ( °F °C ) Dew Point ( °F °C ) Humidity (%) Winds ( mph kmh ) Pressure ( in mb ) Visibility ( mi km ) Precip ( " mm )
12:52 am 00:52 Partly Cloudy with Mist and Fog 34 1.1 32 0 92 92 Calm 30.15 1021 6 9.65604 0 0
1:52 am 01:52 Partly Cloudy with Mist and Fog 33 0.6 31 -0.6 92 92 NNE 7 11 30.17 1022 6 9.65604 0 0
2:52 am 02:52 Clear 33 0.6 31 -0.6 92 92 NE 3 6 30.19 1022 8 12.87472 0 0
3:52 am 03:52 Clear with Mist and Fog 33 0.6 32 0 96 96 NNE 3 6 30.21 1023 6 9.65604 0 0
4:52 am 04:52 Clear 33 0.6 32 0 96 96 NE 3 6 30.2 1023 8 12.87472 0 0
5:52 am 05:52 Clear 34 1.1 32 0 92 92 ENE 3 6 30.22 1023 8 12.87472 0 0
6:27 am 06:27 Mostly Clear 33 0.6 32 0 96 96 NE 5 7 30.23 1024 9 14.48406 0 0
6:52 am 06:52 Partly Cloudy 34 1.1 32 0 92 92 Calm 30.23 1024 9 14.48406 0 0
7:52 am 07:52 Partly Cloudy with Mist and Fog 33 0.6 31 -0.6 92 92 NNE 3 6 30.24 1024 5 8.0467 0 0
8:29 am 08:29 Partly Cloudy with Mist and Fog 35 1.7 32 0 89 89 NNE 3 6 30.27 1025 5 8.0467 0 0
8:52 am 08:52 Mostly Cloudy with Mist and Fog 37 2.8 34 1.1 89 89 NNE 3 6 30.27 1025 5 8.0467 0 0
9:52 am 09:52 Mostly Cloudy with Mist and Fog 40 4.4 36 2.2 86 86 NE 7 11 30.29 1026 5 8.0467 0 0
10:52 am 10:52 Mostly Cloudy with Haze 43 6.1 37 2.8 80 80 ENE 6 9 30.28 1026 6 9.65604 0 0
11:52 am 11:52 Mostly Cloudy 47 8.3 39 3.9 74 74 NNE 7 11 30.27 1025 9 14.48406 0 0
12:52 pm 12:52 Mostly Cloudy 50 10 39 3.9 66 66 NNE 6 9 30.25 1024 10 16.0934 0 0
1:52 pm 13:52 Mostly Cloudy 53 11.7 40 4.4 61 61 NNE 6 9 30.25 1024 10 16.0934 0 0
2:52 pm 14:52 Mostly Cloudy 55 12.8 38 3.3 53 53 NNE 3 6 30.26 1025 10 16.0934 0 0
3:52 pm 15:52 Mostly Cloudy 52 11.1 38 3.3 59 59 ESE 6 9 30.27 1025 10 16.0934 0 0
4:52 pm 16:52 Mostly Cloudy 50 10 39 3.9 66 66 ESE 6 9 30.29 1026 10 16.0934 0 0
5:52 pm 17:52 Mostly Cloudy 49 9.4 39 3.9 69 69 E 5 7 30.29 1026 10 16.0934 0 0
6:52 pm 18:52 Mostly Cloudy 49 9.4 40 4.4 71 71 Calm 30.31 1026 10 16.0934 0 0
7:52 pm 19:52 Cloudy 47 8.3 40 4.4 77 77 NE 5 7 30.32 1027 10 16.0934 0 0
8:52 pm 20:52 Cloudy 44 6.7 40 4.4 85 85 NE 5 7 30.33 1027 10 16.0934 0 0
9:52 pm 21:52 Cloudy 46 7.8 41 5 83 83 Calm 30.34 1027 10 16.0934 0 0
10:52 pm 22:52 Partly Cloudy 45 7.2 41 5 86 86 Calm 30.34 1027 10 16.0934 0 0
11:52 pm 23:52 Mostly Cloudy 43 6.1 40 4.4 89 89 Calm 30.33 1027 10 16.0934 0 0

Powered by AerisWeather